Weather History for Pompano Beach, FL

Change the Weather History Date:

Saturday, April 6, 2013

  Actual Average Record
Temperature  
Mean Temperature 70 °F -  
Max Temperature 79 °F 82 °F 94 °F (1982)
Min Temperature 60 °F 63 °F 48 °F (1987)
Cooling Degree Days 4    
Growing Degree Days 20 (Base 50)    
Moisture  
Dew Point 60 °F    
Average Humidity 76    
Maximum Humidity 100    
Minimum Humidity 54    
Precipitation  
Precipitation 0.00 in - - ()
Sea Level Pressure  
Sea Level Pressure 30.01 in    
Wind  
Wind Speed 12 mph (North)    
Max Wind Speed 17 mph    
Max Gust Speed 22 mph    
Visibility 10 miles    
Events Rain    
Averages and records for this station are not official NWS values.
T = Trace of Precipitation, MM = Missing Value Source: NWS Daily Summary

Daily Weather History Graph

Daily Weather History Graph

Search for Another Location

Airport:

Trip Planner

Search our weather history database for the weather conditions in past years. The results will help you decide how hot, cold, wet, or windy it might be!

Date:

Astronomy

Apr. 06, 2013 Rise Set
Actual Time 7:05 AM EDT 7:39 PM EDT
Civil Twilight 6:42 AM EDT 8:03 PM EDT
Nautical Twilight 6:15 AM EDT 8:30 PM EDT
Astronomical Twilight 5:47 AM EDT 8:58 PM EDT
Moon 4:27 AM EDT (4/6) 4:24 PM EDT (4/6)
Length of Visible Light 13h 20m
Length of Day
12h 33m
Waning Crescent, 15% of the Moon is Illuminated
Apr 6
Waning Crescent
Apr 10
New
Apr 18
First Quarter
Apr 25
Full
May 2
Last Quarter

Hourly Weather History & Observations

Time (EDT) Temp. Dew Point Humidity Pressure Visibility Wind Dir Wind Speed Gust Speed Precip Events Conditions
12:53 AM 64.9 °F 59.0 °F 81% 29.94 in 10.0 mi WNW 13.8 mph - N/A   Mostly Cloudy
1:53 AM 62.1 °F 57.9 °F 86% 29.94 in 10.0 mi WNW 11.5 mph - N/A   Clear
2:53 AM 61.0 °F 59.0 °F 93% 29.94 in 9.0 mi WNW 9.2 mph - N/A   Scattered Clouds
3:04 AM 60.8 °F 59.0 °F 94% 29.94 in 9.0 mi WNW 8.1 mph - N/A   Mostly Cloudy
3:16 AM 60.8 °F 60.8 °F 100% 29.94 in 9.0 mi WNW 8.1 mph - N/A   Scattered Clouds
3:53 AM 62.1 °F 61.0 °F 96% 29.94 in 9.0 mi NW 11.5 mph - N/A   Partly Cloudy
4:53 AM 62.1 °F 61.0 °F 96% 29.94 in 10.0 mi NNW 11.5 mph - N/A   Mostly Cloudy
5:53 AM 61.0 °F 60.1 °F 97% 29.96 in 10.0 mi NNW 13.8 mph - N/A   Clear
6:53 AM 60.1 °F 59.0 °F 96% 29.98 in 10.0 mi NNW 10.4 mph - N/A   Clear
7:53 AM 60.1 °F 57.9 °F 93% 30.01 in 10.0 mi NW 12.7 mph - N/A   Clear
8:53 AM 62.1 °F 57.9 °F 86% 30.02 in 10.0 mi NNW 13.8 mph - N/A   Clear
9:53 AM 66.0 °F 59.0 °F 78% 30.04 in 10.0 mi NW 12.7 mph - N/A   Clear
10:53 AM 71.1 °F 60.1 °F 68% 30.04 in 10.0 mi North 10.4 mph - N/A   Clear
11:53 AM 73.9 °F 61.0 °F 64% 30.05 in 10.0 mi North 10.4 mph - N/A   Scattered Clouds
12:53 PM 75.9 °F 62.1 °F 62% 30.04 in 10.0 mi NNE 13.8 mph - N/A   Clear
1:53 PM 77.0 °F 63.0 °F 62% 30.04 in 10.0 mi NE 17.3 mph - N/A   Partly Cloudy
2:53 PM 78.1 °F 64.0 °F 62% 30.03 in 10.0 mi NE 13.8 mph 21.9 mph N/A   Mostly Cloudy
3:53 PM 79.0 °F 61.0 °F 54% 30.03 in 10.0 mi NE 15.0 mph 20.7 mph N/A   Mostly Cloudy
4:53 PM 75.0 °F 63.0 °F 66% 30.02 in 10.0 mi NE 11.5 mph - 0.00 in Rain Light Rain
5:53 PM 75.9 °F 60.1 °F 58% 30.04 in 10.0 mi NE 13.8 mph - 0.00 in   Mostly Cloudy
6:53 PM 75.0 °F 59.0 °F 57% 30.05 in 10.0 mi NE 12.7 mph - N/A   Partly Cloudy
7:53 PM 73.0 °F 59.0 °F 61% 30.06 in 10.0 mi NNE 8.1 mph - N/A   Partly Cloudy
8:53 PM 73.0 °F 57.9 °F 59% 30.07 in 10.0 mi NE 9.2 mph - N/A   Partly Cloudy
9:53 PM 72.0 °F 61.0 °F 68% 30.08 in 10.0 mi NE 12.7 mph - N/A   Clear
10:53 PM 73.0 °F 62.1 °F 68% 30.09 in 10.0 mi ENE 13.8 mph - N/A   Partly Cloudy
11:53 PM 72.0 °F 62.1 °F 71% 30.10 in 10.0 mi ENE 12.7 mph - N/A   Clear